x

La Perouse Bank (46206) Wave Buoy

5:00 - Sat 29th Aug 2015 All times are PDT. -7 hours from GMT.

  • Sig Wave height 10.5ft
  • Peak Period 11s
  • Wind
    4mph, 9mph gusts
  • Sea Temp 55°f
  • Aire Temp 57°f
  • Sea Pressure 1001mb
  • La Perouse Bank
  • La Perouse Bank

More Historic Weather Station data

Upgrade to MSW Pro to gain access to the past 30 days of data for over 8000 Wavebouys and Weather Stations around the globe.

Join Pro

Comparision Forecast

View Surf forecast
   
sáb 08/29 5:00 10.5ft 11s 4 9 mph 1001mb 55f 57f
4:00 10ft 10s 7 9 mph 1000.2mb 54f 57f
3:00 8.5ft 8s 13 22 mph 1000.1mb 54f 56f
2:00 7ft 8s 18 20 mph 998.7mb 54f 58f
1:00 8ft 8s 11 13 mph 996.3mb 54f 57f
12:00 8.5ft 8s 13 16 mph 993.6mb 54f 57f
11:00 8.5ft 7s 13 18 mph 991.9mb 55f 57f
10:00 9ft 6s 27 34 mph 992mb 55f 58f
9:00 6.5ft 5s 27 31 mph 992.5mb 56f 58f
8:00 6.5ft 5s 25 31 mph 992.7mb 56f 59f
7:00 6ft 5s 31 38 mph 992.2mb 56f 58f
6:00 4.5ft 15s 29 36 mph 993mb 56f 58f
5:00 3.5ft 16s 27 31 mph 994.6mb 56f 58f
4:00 3ft 14s 18 22 mph 996.8mb 56f 58f
3:00 3ft 17s 9 11 mph 998.4mb 57f 58f
2:00 3.5ft 16s 4 7 mph 1000.4mb 57f 58f
1:00 3.5ft 15s 9 11 mph 1001.9mb 58f 58f
12:00 3.5ft 14s 9 11 mph 1003.6mb 58f 58f
vie 08/28 11:00 3.5ft 16s 7 9 mph 1004.8mb 58f 58f
10:00 3.5ft 15s 9
mph
1006.4mb 58f 58f
9:00 4ft 15s 7
mph
1007.3mb 58f 58f
8:00 3.5ft 13s 7
mph
1008.2mb 58f 59f
7:00 3.5ft 14s 9 11 mph 1009.3mb 58f 59f
6:00 3.5ft 16s 9 11 mph 1010.2mb 58f 59f
5:00 3.5ft 15s 11 13 mph 1010.8mb 58f 59f
4:00 3.5ft 16s 9 11 mph 1011.8mb 58f 59f
3:00 4ft 16s 9
mph
1012.4mb 58f 59f
2:00 4ft 15s 7 9 mph 1012.8mb 58f 58f
1:00 4.5ft 15s 7 9 mph 1013.1mb 57f 58f
12:00 4ft 17s 7
mph
1013mb 57f 58f
11:00 4.5ft 15s 9 11 mph 1012.9mb 57f 58f
10:00 4.5ft 6s 9 11 mph 1012.7mb 57f 59f
9:00 5ft 14s 13 16 mph 1012.6mb 57f 59f
8:00 5ft 16s 13 16 mph 1012.4mb 58f 59f
7:00 4.5ft 14s 16 18 mph 1012.1mb 57f 58f
6:00 4.5ft 14s 16 18 mph 1011.9mb 58f 59f
5:00 4ft 14s 22 27 mph 1011.9mb 57f 58f
4:00 3.5ft 14s 22 27 mph 1012.2mb 58f 57f
3:00 3.5ft 14s 18 20 mph 1012.8mb 57f 58f
2:00 3.5ft 15s 13 16 mph 1013.4mb 57f 58f
1:00 3.5ft 14s 13 16 mph 1013.8mb 57f 58f
12:00 3.5ft 15s 11 13 mph 1014.4mb 58f 59f
jue 08/27 11:00 3.5ft 15s 11 13 mph 1015mb 59f 60f
10:00 4ft 14s 7
mph
1014.8mb 58f 60f
9:00 3.5ft 7s 4
mph
1015mb 60f 60f
8:00 4.5ft 16s 2
mph
1014.9mb 60f 60f
7:00 4ft 7s  -  2 mph 1015.4mb 59f 63f
6:00 4.5ft 14s 2 4 mph 1016mb 60f 62f
5:00 4.5ft 7s 2 4 mph 1015.9mb 60f 60f
4:00 4ft 7s 4 7 mph 1017mb 60f 60f
3:00 4ft 6s 4
mph
1017.6mb 60f 60f
2:00 4ft 15s 4
mph
1018.2mb 60f 60f
1:00 4ft 15s 4
mph
1018.5mb 60f 60f
12:00 4ft 16s 4 7 mph 1018.7mb 60f 59f
11:00 3.5ft 15s 4
mph
1018.7mb 59f 59f
10:00 3.5ft 15s 4
mph
1018.4mb 58f 59f
9:00 3.5ft 15s 2
mph
1018.5mb 58f 58f
8:00 3ft 15s 2
mph
1018.4mb 58f 59f
7:00 3.5ft 15s 4
mph
1018.6mb 58f 58f
6:00 3ft 16s 4
mph
1018.3mb 58f 58f
5:00 3.5ft 15s 4 7 mph 1017.9mb 58f 58f
4:00 3.5ft 16s 4
mph
1017.7mb 58f 58f
3:00 3ft 16s  -  mph 1017.3mb 58f 58f
2:00 3.5ft 16s 4
mph
1017.3mb 59f 58f
1:00 3.5ft 15s 4 7 mph 1016.9mb 58f 59f
12:00 3.5ft 15s 7
mph
1016.8mb 58f 58f
mié 08/26 11:00 3.5ft 14s 4
mph
1016.9mb 58f 59f
10:00 3.5ft 16s 4 7 mph 1016.7mb 58f 58f
9:00 3.5ft 14s 7 9 mph 1016.6mb 57f 58f
8:00 3.5ft 14s 7 9 mph 1016.8mb 58f 58f
7:00 3.5ft 14s 7 9 mph 1016.7mb 58f 59f
6:00 3.5ft 16s 4
mph
1016.8mb 58f 58f
5:00 3.5ft 15s 7 9 mph 1016.5mb 58f 59f
4:00 3.5ft 14s 7 9 mph 1016.8mb 58f 59f
3:00 3.5ft 14s 9 11 mph 1017.3mb 59f 59f
2:00 4ft 9s 4
mph
1016.7mb 60f 59f
1:00 3.5ft 10s 4
mph
1017.1mb 59f 59f
12:00 3.5ft 10s 4
mph
1017.2mb 58f 58f
11:00 4ft 10s 4
mph
1017.1mb 58f 58f
10:00 3.5ft 10s 4
mph
1017mb 57f 57f
9:00 4ft 14s 4
mph
1016.9mb 57f 57f
8:00 4ft 10s  -  2 mph 1016.8mb 57f 58f
7:00 4ft 10s 2
mph
1016.6mb 57f 57f
6:00 3.5ft 14s  -  2 mph 1016.5mb 57f 57f
5:00 4ft 10s 4
mph
1016.4mb 58f 58f
4:00 3.5ft 9s 7
mph
1016.2mb 58f 58f
3:00 4ft 9s 7 9 mph 1016.3mb 58f 58f
2:00 4ft 10s 7
mph
1016.1mb 58f 58f